Date Time,Air Temp,Sky Temp,Clarity,Light Level,Rain Sensor,Readings
2011-07-08 00:00:10,19.8,9.8,10.0,0.0,2.3,112
2011-07-08 00:05:10,19.9,8.1,11.8,0.0,2.3,111
2011-07-08 00:10:10,19.9,5.1,14.8,0.0,2.3,112
2011-07-08 00:15:10,19.8,8.1,11.7,0.0,2.3,111
2011-07-08 00:20:10,19.9,6.2,13.6,0.0,2.3,111
2011-07-08 00:25:10,19.9,8.7,11.2,0.0,2.3,112
2011-07-08 00:30:10,19.9,9.2,10.7,0.0,2.3,111
2011-07-08 00:35:10,19.9,9.9,10.0,0.0,2.3,112
2011-07-08 00:40:10,20.0,7.3,12.7,0.0,2.3,111
2011-07-08 00:45:10,20.0,9.0,11.0,0.0,2.3,112
2011-07-08 00:50:10,20.0,8.1,11.9,0.0,2.3,111
2011-07-08 00:55:10,20.0,7.6,12.4,0.0,2.3,112
2011-07-08 01:00:10,20.0,5.7,14.3,0.0,2.3,111
2011-07-08 01:05:10,20.0,7.3,12.7,0.0,2.3,111
2011-07-08 01:10:10,20.0,8.6,11.4,0.0,2.3,112
2011-07-08 01:15:10,20.0,7.8,12.2,0.0,2.3,112
2011-07-08 01:20:10,20.0,6.7,13.3,0.0,2.3,111
2011-07-08 01:25:10,19.9,4.6,15.4,0.0,2.3,112
2011-07-08 01:30:10,19.9,5.0,14.9,0.0,2.3,111
2011-07-08 01:35:10,19.9,9.3,10.6,0.0,2.3,112
2011-07-08 01:40:10,20.0,10.0,9.9,0.0,2.3,111
2011-07-08 01:45:10,20.1,10.2,9.9,0.0,2.3,111
2011-07-08 01:50:10,20.1,10.5,9.6,0.0,2.3,112
2011-07-08 01:55:10,20.0,9.5,10.5,0.0,6.2,112
2011-07-08 02:00:10,19.8,9.2,10.6,0.0,3.1,111
2011-07-08 02:05:10,19.6,9.8,9.8,0.0,2.6,112
2011-07-08 02:10:10,19.6,9.7,9.9,0.0,2.4,111
2011-07-08 02:15:10,19.6,10.3,9.3,0.0,5.1,112
2011-07-08 02:20:10,19.6,9.2,10.5,0.0,10.3,111
2011-07-08 02:25:10,19.5,8.1,11.5,0.0,2.6,112
2011-07-08 02:30:10,19.4,8.5,10.9,0.0,6.5,111
2011-07-08 02:35:10,19.4,13.2,6.2,0.0,23.3,112
2011-07-08 02:40:10,19.5,13.1,6.5,0.0,23.4,111
2011-07-08 02:45:10,19.6,12.3,7.3,0.0,9.9,111
2011-07-08 02:50:10,19.4,8.1,11.3,0.0,2.3,111
2011-07-08 02:55:10,19.3,8.3,11.0,0.0,2.3,112
2011-07-08 03:00:10,19.3,7.5,11.8,0.0,2.3,111
2011-07-08 03:05:10,19.4,7.4,12.0,0.0,2.3,112
2011-07-08 03:10:10,19.4,5.7,13.7,0.1,2.3,111
2011-07-08 03:15:10,19.4,5.1,14.2,0.1,2.3,112
2011-07-08 03:20:10,19.4,6.9,12.4,0.1,2.3,112
2011-07-08 03:25:10,19.3,7.5,11.9,0.1,2.3,111
2011-07-08 03:30:10,19.3,5.2,14.2,0.1,2.3,112
2011-07-08 03:35:10,19.3,5.7,13.6,0.2,2.3,111
2011-07-08 03:40:10,19.3,5.9,13.3,0.2,2.4,112
2011-07-08 03:45:10,19.2,5.8,13.4,0.3,3.1,111
2011-07-08 03:50:10,19.2,7.6,11.6,0.3,2.3,112
2011-07-08 03:55:10,19.2,6.4,12.7,0.6,2.3,111
2011-07-08 04:00:10,19.2,5.2,13.9,1.1,2.3,112
2011-07-08 04:05:10,19.2,4.0,15.1,1.8,2.3,111
2011-07-08 04:10:10,19.1,4.0,15.1,2.6,2.3,112
2011-07-08 04:15:10,19.1,4.4,14.7,3.9,2.3,112
2011-07-08 04:20:10,19.1,5.2,13.9,5.4,2.3,112
2011-07-08 04:25:10,19.1,5.6,13.5,7.7,2.6,111
2011-07-08 04:30:10,19.0,6.1,12.9,10.7,2.5,112
2011-07-08 04:35:10,19.0,5.9,13.1,13.9,2.3,111
2011-07-08 04:40:10,19.0,6.2,12.8,16.8,2.3,112
2011-07-08 04:45:10,19.0,5.7,13.3,21.6,2.3,111
2011-07-08 04:50:10,19.0,5.7,13.4,24.6,2.3,112
2011-07-08 04:55:10,19.1,5.9,13.2,26.1,2.3,112
2011-07-08 05:00:10,19.1,6.2,12.9,27.6,2.7,111
2011-07-08 05:05:10,18.7,6.7,12.1,28.8,2.4,111
2011-07-08 05:10:10,19.1,7.5,11.7,29.6,2.5,112
2011-07-08 05:15:10,19.2,8.0,11.2,30.3,2.6,111
2011-07-08 05:20:10,19.3,8.0,11.3,30.8,2.4,111
2011-07-08 05:25:10,19.3,8.7,10.6,30.7,2.6,112
2011-07-08 05:30:10,19.4,8.5,10.9,30.7,3.1,111
2011-07-08 05:35:10,19.3,8.2,11.2,30.6,6.4,111
2011-07-08 05:40:10,18.9,13.5,5.4,30.7,16.8,112
2011-07-08 05:45:10,19.3,12.3,7.0,30.0,25.6,111
2011-07-08 05:50:10,19.2,10.8,8.4,31.5,15.2,111
2011-07-08 05:55:10,19.0,7.3,11.7,31.5,4.1,112
2011-07-08 06:00:10,18.7,6.3,12.3,31.7,3.6,111
2011-07-08 06:05:10,18.6,7.2,11.4,32.1,3.5,111
2011-07-08 06:10:10,18.6,7.9,10.7,32.0,3.0,112
2011-07-08 06:15:10,18.7,8.9,9.9,31.9,3.5,112
2011-07-08 06:20:10,18.8,9.1,9.7,31.8,4.4,111
2011-07-08 06:25:10,18.9,9.0,9.8,32.0,14.8,112
2011-07-08 06:30:10,19.1,11.5,7.6,32.3,13.1,112
2011-07-08 06:35:10,19.1,9.6,9.5,32.3,10.4,111
2011-07-08 06:40:10,19.2,13.8,5.4,32.4,9.4,111
2011-07-08 06:45:10,19.1,10.6,8.5,32.3,3.0,112
2011-07-08 06:50:10,19.1,8.2,10.9,32.3,8.3,111
2011-07-08 06:55:10,19.2,8.4,10.8,32.2,13.2,111
2011-07-08 07:00:10,19.3,9.2,10.1,32.1,13.3,111
2011-07-08 07:05:10,19.3,10.3,9.0,32.0,13.8,112
2011-07-08 07:10:10,19.3,11.9,7.4,32.1,21.5,111
2011-07-08 07:15:10,19.3,12.4,7.0,32.2,21.2,111
2011-07-08 07:20:10,19.5,13.7,5.8,32.1,24.6,112
2011-07-08 07:25:10,19.6,14.2,5.3,32.2,19.1,111
2011-07-08 07:30:10,19.6,14.3,5.3,32.0,22.4,112
2011-07-08 07:35:10,19.6,13.4,6.2,31.8,24.3,111
2011-07-08 07:40:10,19.5,12.5,7.0,32.2,14.5,111
2011-07-08 07:45:10,19.4,12.7,6.6,32.0,18.1,111
2011-07-08 07:50:10,19.3,10.2,9.1,32.3,5.1,112
2011-07-08 07:55:11,19.4,9.2,10.2,32.4,3.7,111
2011-07-08 08:00:11,19.5,9.3,10.2,32.3,5.5,111
2011-07-08 08:05:11,19.5,9.2,10.2,32.4,17.4,112
2011-07-08 08:10:11,19.3,11.6,7.7,32.3,29.7,112
2011-07-08 08:15:11,19.5,11.1,8.3,32.3,10.5,111
2011-07-08 08:20:11,19.4,9.2,10.2,32.3,2.6,111
2011-07-08 08:25:11,19.4,8.6,10.8,32.3,12.1,112
2011-07-08 08:30:11,19.4,8.6,10.8,32.2,9.4,111
2011-07-08 08:35:11,19.4,9.4,10.1,32.2,18.6,112
2011-07-08 08:40:11,19.5,10.8,8.7,32.1,18.9,111
2011-07-08 08:45:11,19.6,12.4,7.3,32.2,25.6,112
2011-07-08 08:50:11,19.7,12.5,7.2,32.3,26.7,111
2011-07-08 08:55:11,19.8,14.0,5.8,32.4,23.7,111
2011-07-08 09:00:11,20.0,13.6,6.4,32.5,11.1,112
2011-07-08 09:05:11,20.0,14.2,5.8,32.5,3.6,111
2011-07-08 09:10:11,20.0,12.8,7.2,32.3,15.0,111
2011-07-08 09:15:11,20.0,11.5,8.5,32.5,4.3,111
2011-07-08 09:20:11,19.9,10.9,8.9,32.3,11.5,111
2011-07-08 09:25:11,19.8,9.8,10.0,32.3,3.6,112
2011-07-08 09:30:11,19.9,10.2,9.7,32.4,2.4,112
2011-07-08 09:35:11,20.1,9.5,10.6,32.5,4.5,111
2011-07-08 09:40:11,20.2,11.0,9.2,32.4,19.6,112
2011-07-08 09:45:11,20.1,12.0,8.1,32.4,17.3,111
2011-07-08 09:50:11,20.1,9.5,10.6,32.5,5.5,112
2011-07-08 09:55:11,20.4,6.0,14.4,32.6,2.4,111
2011-07-08 10:00:11,20.9,6.1,14.8,32.6,2.3,111
2011-07-08 10:05:11,21.4,10.2,11.1,32.6,2.3,112
2011-07-08 10:10:11,21.6,10.8,10.8,32.5,2.3,112
2011-07-08 10:15:11,21.6,8.8,12.8,32.6,2.3,111
2011-07-08 10:20:11,21.8,9.0,12.9,32.6,2.3,111
2011-07-08 10:25:11,22.2,8.7,13.5,32.6,2.3,112
2011-07-08 10:30:11,22.2,9.1,13.1,32.5,2.4,111
2011-07-08 10:35:11,21.8,9.3,12.5,32.5,3.5,112
2011-07-08 10:40:11,21.5,10.5,11.0,32.5,2.3,111
2011-07-08 10:45:11,21.6,10.2,11.4,32.5,2.7,111
2011-07-08 10:50:11,21.6,10.4,11.2,32.5,2.6,112
2011-07-08 10:55:11,21.7,11.0,10.7,32.5,2.3,111
2011-07-08 11:00:11,21.9,9.9,12.0,32.5,3.6,112
2011-07-08 11:05:11,21.6,9.5,12.0,32.5,3.3,111
2011-07-08 11:10:11,21.1,9.8,11.3,32.5,2.6,112
2011-07-08 11:15:11,21.1,10.2,10.9,32.5,2.3,111
2011-07-08 11:20:11,21.4,10.5,10.9,32.5,2.3,112
2011-07-08 11:25:11,21.6,10.0,11.6,32.5,2.8,112
2011-07-08 11:30:11,21.4,9.4,12.0,32.5,3.7,111
2011-07-08 11:35:11,21.3,9.1,12.2,32.6,4.7,112
2011-07-08 11:40:11,21.3,9.9,11.3,32.5,3.3,112
2011-07-08 11:45:11,21.3,10.1,11.1,32.6,2.6,111
2011-07-08 11:50:11,21.6,10.1,11.5,32.6,2.3,112
2011-07-08 11:55:11,21.8,10.8,11.0,32.6,2.4,111
2011-07-08 12:00:11,22.2,9.9,12.3,32.6,2.3,111
2011-07-08 12:05:11,22.1,9.5,12.6,32.4,8.9,112
2011-07-08 12:10:11,21.6,10.9,10.7,32.5,12.6,111
2011-07-08 12:15:11,21.4,9.1,12.3,32.6,2.3,111
2011-07-08 12:20:11,21.9,10.1,11.7,32.6,2.4,112
2011-07-08 12:25:11,22.6,9.2,13.4,32.6,2.3,111
2011-07-08 12:30:11,22.9,9.6,13.3,32.6,2.3,112
2011-07-08 12:35:11,22.8,9.9,12.9,32.6,2.3,111
2011-07-08 12:40:11,22.7,10.0,12.8,32.6,2.3,112
2011-07-08 12:45:11,23.2,8.7,14.5,32.6,2.3,111
2011-07-08 12:50:11,23.5,8.1,15.4,32.6,2.3,112
2011-07-08 12:55:11,23.8,8.3,15.5,32.5,2.3,111
2011-07-08 13:00:11,23.0,9.6,13.3,32.5,2.5,111
2011-07-08 13:05:11,22.4,9.7,12.7,32.5,6.2,111
2011-07-08 13:10:11,22.1,9.2,12.8,32.5,7.6,112
2011-07-08 13:15:11,21.8,10.8,11.0,32.5,2.6,111
2011-07-08 13:20:11,21.8,10.3,11.4,32.5,2.5,112
2011-07-08 13:25:11,21.7,9.7,12.0,32.5,2.9,112
2011-07-08 13:30:11,21.6,10.0,11.6,32.5,2.4,112
2011-07-08 13:35:11,21.5,10.1,11.4,32.5,2.5,111
2011-07-08 13:40:11,21.6,10.4,11.3,32.5,2.4,112
2011-07-08 13:45:11,21.7,10.2,11.5,32.4,2.8,112
2011-07-08 13:50:11,21.6,10.0,11.6,32.5,2.4,111
2011-07-08 13:55:11,21.7,10.0,11.6,32.5,2.4,112
2011-07-08 14:00:11,21.8,10.1,11.7,32.5,2.5,111
2011-07-08 14:05:11,22.1,10.1,12.0,32.5,2.4,111
2011-07-08 14:10:11,22.0,10.1,11.9,32.5,2.4,112
2011-07-08 14:15:11,22.0,10.4,11.5,32.5,2.4,111
2011-07-08 14:20:11,22.7,9.1,13.6,32.6,2.3,112
2011-07-08 14:25:11,23.6,9.5,14.1,32.6,2.3,111
2011-07-08 14:30:11,23.4,9.7,13.7,32.6,2.2,112
2011-07-08 14:35:11,23.3,10.8,12.5,32.6,2.3,111
2011-07-08 14:40:11,23.3,9.6,13.7,32.6,2.3,112
2011-07-08 14:45:11,23.4,11.0,12.4,32.6,2.2,111
2011-07-08 14:50:11,23.4,10.2,13.3,32.6,2.3,112
2011-07-08 14:55:11,23.3,10.7,12.5,32.5,2.3,111
2011-07-08 15:00:11,23.0,9.7,13.2,32.5,2.5,111
2011-07-08 15:05:11,22.6,10.0,12.6,32.5,2.6,112
2011-07-08 15:10:11,22.5,10.5,12.0,32.6,2.3,111
2011-07-08 15:15:11,22.7,10.2,12.5,32.5,2.3,112
2011-07-08 15:20:11,22.6,9.6,13.0,32.6,2.5,111
2011-07-08 15:25:11,22.6,9.8,12.8,32.6,2.3,112
2011-07-08 15:30:11,22.8,10.4,12.3,32.5,2.3,112
2011-07-08 15:35:11,22.4,10.2,12.2,32.5,2.3,111
2011-07-08 15:40:11,22.7,10.2,12.5,32.5,2.3,112
2011-07-08 15:45:11,22.5,9.8,12.6,32.5,2.3,112
2011-07-08 15:50:11,22.3,9.5,12.8,32.5,2.3,111
2011-07-08 15:55:11,22.3,10.1,12.2,32.5,2.3,112
2011-07-08 16:00:11,22.5,9.2,13.3,32.6,2.3,111
2011-07-08 16:05:11,22.6,9.7,12.9,32.6,2.3,112
2011-07-08 16:10:11,22.8,9.7,13.1,32.6,2.3,111
2011-07-08 16:15:11,22.9,10.3,12.6,32.6,2.3,112
2011-07-08 16:20:11,22.9,9.9,13.0,32.5,2.3,111
2011-07-08 16:25:11,22.8,9.9,12.9,32.5,2.3,111
2011-07-08 16:30:11,22.7,9.8,12.9,32.5,2.3,112
2011-07-08 16:35:11,22.8,10.1,12.7,32.6,2.3,112
2011-07-08 16:40:11,23.3,9.0,14.3,32.6,2.3,111
2011-07-08 16:45:11,23.7,7.6,16.1,32.6,2.3,112
2011-07-08 16:50:11,23.3,8.7,14.5,32.5,2.3,111
2011-07-08 16:55:11,22.8,9.7,13.1,32.5,2.3,112
2011-07-08 17:00:11,22.4,9.5,12.9,32.5,2.3,112
2011-07-08 17:05:11,22.3,9.3,13.0,32.5,2.3,111
2011-07-08 17:10:11,22.2,9.6,12.5,32.5,2.3,111
2011-07-08 17:15:11,21.8,9.7,12.1,32.5,2.3,112
2011-07-08 17:20:11,21.9,9.0,12.8,32.5,2.3,111
2011-07-08 17:25:11,22.3,8.7,13.6,32.5,2.3,112
2011-07-08 17:30:11,22.1,8.7,13.5,32.5,2.3,111
2011-07-08 17:35:11,22.2,8.2,14.0,32.5,2.3,112
2011-07-08 17:40:11,22.2,8.3,13.9,32.5,2.3,111
2011-07-08 17:45:11,22.2,8.3,13.9,32.5,2.3,112
2011-07-08 17:50:11,22.2,8.5,13.7,32.5,2.3,111
2011-07-08 17:55:11,22.2,8.5,13.7,32.5,2.3,112
2011-07-08 18:00:11,22.3,8.1,14.2,32.5,2.3,111
2011-07-08 18:05:11,22.3,7.8,14.5,32.5,2.3,112
2011-07-08 18:10:11,22.3,8.0,14.2,32.5,2.3,111
2011-07-08 18:15:11,22.2,7.9,14.3,32.5,2.3,112
2011-07-08 18:20:11,22.2,8.8,13.4,32.5,2.3,111
2011-07-08 18:25:11,22.2,8.5,13.7,32.5,2.3,112
2011-07-08 18:30:11,22.5,8.2,14.3,32.6,2.3,111
2011-07-08 18:35:11,24.2,2.8,21.4,32.6,2.3,111
2011-07-08 18:40:11,27.1,-0.5,27.6,32.6,2.3,111
2011-07-08 18:45:11,28.1,0.2,27.9,32.6,2.3,112
2011-07-08 18:50:11,28.7,-1.7,30.4,32.6,2.3,111
2011-07-08 18:55:11,28.7,-2.7,31.4,32.6,2.3,111
2011-07-08 19:00:11,28.5,-0.3,28.8,32.6,2.3,112
2011-07-08 19:05:11,28.7,1.1,27.7,32.6,2.3,111
2011-07-08 19:10:11,28.8,-2.6,31.4,32.6,2.4,112
2011-07-08 19:15:11,28.8,-3.0,31.8,32.6,2.4,112
2011-07-08 19:20:11,28.7,-3.2,31.9,32.6,2.4,111
2011-07-08 19:25:11,28.5,-2.6,31.1,32.6,2.3,112
2011-07-08 19:30:11,28.6,-1.4,30.0,32.6,2.3,112
2011-07-08 19:35:11,28.6,-3.3,31.9,32.6,2.4,111
2011-07-08 19:40:11,28.1,-4.3,32.3,32.5,2.3,111
2011-07-08 19:45:11,27.4,-1.7,29.2,32.5,2.3,112
2011-07-08 19:50:11,27.0,-1.9,28.9,32.5,2.3,112
2011-07-08 19:55:11,26.8,1.3,25.5,32.5,2.4,111
2011-07-08 20:00:11,26.9,0.6,26.3,32.4,2.4,112
2011-07-08 20:05:11,26.6,0.3,26.3,32.4,2.3,111
2011-07-08 20:10:11,25.8,4.5,21.2,32.4,2.5,112
2011-07-08 20:15:11,25.7,-0.2,25.9,32.4,2.5,111
2011-07-08 20:20:11,25.1,4.7,20.4,32.4,2.4,112
2011-07-08 20:25:11,23.9,4.3,19.6,32.3,2.3,111
2011-07-08 20:30:11,22.6,4.8,17.8,32.3,2.3,111
2011-07-08 20:35:11,21.6,6.5,15.1,32.2,2.4,112
2011-07-08 20:40:11,21.2,8.1,13.1,32.0,2.4,111
2011-07-08 20:45:11,21.0,4.5,16.5,32.0,2.3,112
2011-07-08 20:50:11,22.8,-1.4,24.3,32.0,2.4,111
2011-07-08 20:55:11,24.5,-1.6,26.1,31.9,2.3,112
2011-07-08 21:00:11,24.9,0.2,24.6,31.7,2.3,112
2011-07-08 21:05:11,24.8,4.7,20.2,31.2,2.3,111
2011-07-08 21:10:11,22.7,2.7,20.0,31.0,2.4,111
2011-07-08 21:15:11,24.2,-0.0,24.2,30.6,2.3,112
2011-07-08 21:20:11,24.7,-2.1,26.8,30.2,2.3,112
2011-07-08 21:25:11,24.7,-4.2,28.9,29.6,2.3,112
2011-07-08 21:30:11,24.7,-4.7,29.3,28.5,2.3,112
2011-07-08 21:35:11,24.6,-4.9,29.5,26.7,2.3,111
2011-07-08 21:40:11,24.5,-5.2,29.6,24.6,2.3,112
2011-07-08 21:45:11,24.4,-4.7,29.1,21.8,2.3,111
2011-07-08 21:50:11,24.3,-4.2,28.5,18.1,2.3,112
2011-07-08 21:55:11,24.3,-4.2,28.5,14.0,2.4,112
2011-07-08 22:00:11,24.2,-4.5,28.7,10.1,2.4,112
2011-07-08 22:05:11,24.1,-3.8,27.9,7.1,2.4,112
2011-07-08 22:10:11,24.1,-0.2,24.4,4.8,2.5,111
2011-07-08 22:15:11,24.1,1.3,22.9,2.6,2.5,112
2011-07-08 22:20:11,23.4,4.8,18.6,1.6,2.4,112
2011-07-08 22:25:11,20.9,7.2,13.7,0.9,2.4,111
2011-07-08 22:30:11,20.3,9.4,10.9,0.6,2.5,112
2011-07-08 22:35:11,20.1,10.4,9.7,0.3,2.3,111
2011-07-08 22:40:11,20.1,9.9,10.2,0.3,2.3,112
2011-07-08 22:45:11,20.1,9.6,10.5,0.2,2.3,111
2011-07-08 22:50:11,20.1,8.7,11.4,0.1,2.3,112
2011-07-08 22:55:11,20.1,9.1,11.0,0.1,2.3,111
2011-07-08 23:00:12,20.1,10.1,10.0,0.1,2.3,111
2011-07-08 23:05:12,20.1,9.7,10.4,0.0,2.3,112
2011-07-08 23:10:12,20.2,8.0,12.2,0.0,2.3,112
2011-07-08 23:15:12,20.2,8.7,11.5,0.0,2.3,111
2011-07-08 23:20:12,20.1,9.2,10.9,0.0,2.3,112
2011-07-08 23:25:12,20.1,8.5,11.6,0.0,2.3,112
2011-07-08 23:30:12,20.2,3.6,16.5,0.0,2.3,111
2011-07-08 23:35:12,20.1,6.4,13.7,0.0,2.3,111
2011-07-08 23:40:12,20.0,6.0,14.0,0.0,2.3,112
2011-07-08 23:45:12,20.0,6.2,13.8,0.0,2.3,111
2011-07-08 23:50:12,20.0,8.3,11.7,0.0,2.3,112
2011-07-08 23:55:12,20.0,10.3,9.7,0.0,2.3,111
